| time (UTC) | temp C | wind direction | speed KPH | gust KPH | rain 1hr cm | rain 24hr cm | rain mn cm | humidity % | barometer mb |
| 20260509213046 | 16 | 161 | 3.2 | 12.9 | 0.00 | 0.00 | 0.00 | 61 | 1010.6 |
| 20260509212543 | 16 | 150 | 4.8 | 9.7 | 0.00 | 0.00 | 0.00 | 62 | 1010.4 |
| 20260509212040 | 16 | 214 | 6.4 | 12.9 | 0.00 | 0.00 | 0.00 | 62 | 1010.4 |
| 20260509211536 | 16 | 149 | 4.8 | 14.5 | 0.00 | 0.00 | 0.00 | 62 | 1010.2 |
| 20260509211033 | 16 | 147 | 4.8 | 9.7 | 0.00 | 0.00 | 0.00 | 62 | 1010.2 |
| 20260509210529 | 16 | 153 | 14.5 | 19.3 | 0.00 | 0.00 | 0.00 | 59 | 1010.1 |
| 20260509210020 | 16 | 156 | 8.0 | 11.3 | 0.00 | 0.00 | 0.00 | 61 | 1010.3 |
| 20260509205515 | 16 | 152 | 11.3 | 19.3 | 0.00 | 0.00 | 0.00 | 59 | 1010.4 |
| 20260509205010 | 17 | 110 | 4.8 | 8.0 | 0.00 | 0.00 | 0.00 | 59 | 1010.2 |
| 20260509204507 | 18 | 139 | 9.7 | 14.5 | 0.00 | 0.00 | 0.00 | 54 | 1010.3 |
| 20260509204004 | 17 | 137 | 3.2 | 8.0 | 0.00 | 0.00 | 0.00 | 61 | 1010.2 |
| 20260509203459 | 17 | 55 | 1.6 | 8.0 | 0.00 | 0.00 | 0.00 | 59 | 1010.1 |
| 20260509202957 | 18 | 127 | 3.2 | 8.0 | 0.00 | 0.00 | 0.00 | 62 | 1010.3 |
| 20260509202453 | 17 | 144 | 14.5 | 14.5 | 0.00 | 0.00 | 0.00 | 60 | 1010.3 |
| 20260509201947 | 17 | 327 | 1.6 | 9.7 | 0.00 | 0.00 | 0.00 | 59 | 1010.3 |
| 20260509201443 | 17 | 156 | 4.8 | 9.7 | 0.00 | 0.00 | 0.00 | 65 | 1010.2 |
| 20260509200940 | 17 | 320 | 0.0 | 12.9 | 0.00 | 0.00 | 0.00 | 61 | 1010.5 |
| 20260509200440 | 17 | 152 | 4.8 | 16.1 | 0.00 | 0.00 | 0.00 | 62 | 1010.3 |
| 20260509195937 | 17 | 121 | 3.2 | 6.4 | 0.00 | 0.00 | 0.00 | 61 | 1010.4 |
| 20260509195433 | 16 | 169 | 3.2 | 6.4 | 0.00 | 0.00 | 0.00 | 63 | 1010.3 |
| 20260509194932 | 16 | 91 | 4.8 | 4.8 | 0.00 | 0.00 | 0.00 | 65 | 1010.2 |
| 20260509194428 | 16 | 135 | 1.6 | 8.0 | 0.00 | 0.00 | 0.00 | 66 | 1010.3 |
| 20260509193925 | 15 | 162 | 4.8 | 8.0 | 0.00 | 0.00 | 0.00 | 62 | 1010.6 |
| 20260509193425 | 15 | 154 | 8.0 | 8.0 | 0.00 | 0.00 | 0.00 | 65 | 1010.5 |
| 20260509192921 | 15 | 153 | 4.8 | 17.7 | 0.00 | 0.00 | 0.00 | 63 | 1010.4 |
| 20260509192417 | 15 | 150 | 6.4 | 16.1 | 0.00 | 0.00 | 0.00 | 64 | 1010.3 |
| 20260509191912 | 16 | 148 | 6.4 | 9.7 | 0.00 | 0.00 | 0.00 | 65 | 1010.3 |
| 20260509191408 | 16 | 39 | 0.0 | 4.8 | 0.00 | 0.00 | 0.00 | 70 | 1010.3 |
| 20260509190904 | 16 | 137 | 3.2 | 11.3 | 0.00 | 0.00 | 0.00 | 61 | 1010.0 |
| 20260509190402 | 16 | 157 | 3.2 | 12.9 | 0.00 | 0.00 | 0.00 | 62 | 1010.5 |
| 20260509185859 | 16 | 148 | 4.8 | 9.7 | 0.00 | 0.00 | 0.00 | 64 | 1010.1 |
| 20260509185355 | 16 | 140 | 1.6 | 4.8 | 0.00 | 0.00 | 0.00 | 65 | 1010.3 |
| 20260509184853 | 15 | 157 | 4.8 | 8.0 | 0.00 | 0.00 | 0.00 | 61 | 1010.1 |
| 20260509184349 | 16 | 154 | 1.6 | 4.8 | 0.00 | 0.00 | 0.00 | 62 | 1010.0 |
| 20260509183846 | 16 | 146 | 3.2 | 6.4 | 0.00 | 0.00 | 0.00 | 58 | 1010.3 |
| 20260509183341 | 16 | 175 | 0.0 | 4.8 | 0.00 | 0.00 | 0.00 | 63 | 1010.2 |
| 20260509182838 | 15 | 139 | 3.2 | 9.7 | 0.00 | 0.00 | 0.00 | 63 | 1010.4 |
| 20260509182335 | 15 | 157 | 0.0 | 22.5 | 0.00 | 0.00 | 0.00 | 64 | 1010.1 |
| 20260509181832 | 15 | 155 | 6.4 | 16.1 | 0.00 | 0.00 | 0.00 | 60 | 1010.3 |
| 20260509181329 | 15 | 159 | 8.0 | 12.9 | 0.00 | 0.00 | 0.00 | 58 | 1010.2 |
| 20260509180827 | 15 | 164 | 0.0 | 12.9 | 0.00 | 0.00 | 0.00 | 62 | 1010.4 |
| 20260509180323 | 16 | 215 | 1.6 | 6.4 | 0.00 | 0.00 | 0.00 | 63 | 1010.3 |
| 20260509175819 | 16 | 129 | 1.6 | 6.4 | 0.00 | 0.00 | 0.00 | 60 | 1010.2 |
| 20260509175316 | 16 | 84 | 1.6 | 3.2 | 0.00 | 0.00 | 0.00 | 58 | 1010.2 |
| 20260509174812 | 16 | 66 | 1.6 | 4.8 | 0.00 | 0.00 | 0.00 | 60 | 1010.4 |
| 20260509174308 | 16 | 150 | 3.2 | 4.8 | 0.00 | 0.00 | 0.00 | 64 | 1010.2 |
| 20260509173804 | 16 | 100 | 3.2 | 11.3 | 0.00 | 0.00 | 0.00 | 59 | 1010.3 |
| 20260509173259 | 16 | 141 | 3.2 | 8.0 | 0.00 | 0.00 | 0.00 | 58 | 1010.4 |
| 20260509172755 | 15 | 133 | 4.8 | 8.0 | 0.00 | 0.00 | 0.00 | 62 | 1010.5 |
| 20260509172252 | 14 | 149 | 3.2 | 12.9 | 0.00 | 0.00 | 0.00 | 62 | 1010.3 |
| 20260509171748 | 14 | 150 | 6.4 | 6.4 | 0.00 | 0.00 | 0.00 | 65 | 1010.4 |
| 20260509171244 | 14 | 334 | 1.6 | 8.0 | 0.00 | 0.00 | 0.00 | 58 | 1010.6 |
| 20260509170741 | 14 | 127 | 1.6 | 6.4 | 0.00 | 0.00 | 0.00 | 59 | 1010.7 |
| 20260509170237 | 14 | 200 | 1.6 | 6.4 | 0.00 | 0.00 | 0.00 | 63 | 1010.7 |
| 20260509165736 | 13 | 161 | 4.8 | 12.9 | 0.00 | 0.00 | 0.00 | 64 | 1010.6 |
| 20260509165226 | 14 | 182 | 6.4 | 9.7 | 0.00 | 0.00 | 0.00 | 59 | 1010.5 |
| 20260509164722 | 14 | 123 | 11.3 | 14.5 | 0.00 | 0.00 | 0.00 | 62 | 1010.8 |
| 20260509164218 | 14 | 142 | 6.4 | 8.0 | 0.00 | 0.00 | 0.00 | 60 | 1010.5 |
| 20260509163715 | 14 | 138 | 6.4 | 12.9 | 0.00 | 0.00 | 0.00 | 63 | 1010.4 |
| 20260509163212 | 14 | 175 | 3.2 | 4.8 | 0.00 | 0.00 | 0.00 | 66 | 1010.5 |
| 20260509162709 | 14 | 140 | 3.2 | 4.8 | 0.00 | 0.00 | 0.00 | 67 | 1010.8 |
| 20260509162205 | 14 | 305 | 0.0 | 6.4 | 0.00 | 0.00 | 0.00 | 73 | 1011.2 |
| 20260509161700 | 13 | 133 | 3.2 | 8.0 | 0.00 | 0.00 | 0.00 | 67 | 1011.1 |
| 20260509161156 | 14 | 146 | 4.8 | 6.4 | 0.00 | 0.00 | 0.00 | 68 | 1011.1 |
| 20260509160652 | 13 | 119 | 6.4 | 12.9 | 0.00 | 0.00 | 0.00 | 68 | 1010.8 |
| 20260509160148 | 13 | 51 | 0.0 | 4.8 | 0.00 | 0.00 | 0.00 | 70 | 1011.0 |
| 20260509155644 | 13 | 155 | 4.8 | 8.0 | 0.00 | 0.00 | 0.00 | 71 | 1011.4 |
| 20260509155140 | 13 | 147 | 3.2 | 9.7 | 0.00 | 0.00 | 0.00 | 73 | 1011.2 |
| 20260509154636 | 13 | 113 | 3.2 | 4.8 | 0.00 | 0.00 | 0.00 | 76 | 1011.2 |
| 20260509154133 | 12 | 2 | 0.0 | 6.4 | 0.00 | 0.00 | 0.00 | 74 | 1011.5 |
| 20260509153630 | 12 | 108 | 1.6 | 4.8 | 0.00 | 0.00 | 0.00 | 75 | 1011.3 |
| 20260509153127 | 12 | 138 | 3.2 | 6.4 | 0.00 | 0.00 | 0.00 | 77 | 1011.6 |
| 20260509152623 | 12 | 136 | 3.2 | 4.8 | 0.00 | 0.00 | 0.00 | 77 | 1011.2 |
| 20260509152120 | 12 | 132 | 3.2 | 4.8 | 0.00 | 0.00 | 0.00 | 76 | 1011.3 |
| 20260509151617 | 12 | 136 | 3.2 | 4.8 | 0.00 | 0.00 | 0.00 | 79 | 1011.2 |
| 20260509151115 | 12 | 137 | 4.8 | 6.4 | 0.00 | 0.00 | 0.00 | 78 | 1011.4 |
| 20260509150612 | 12 | 135 | 1.6 | 4.8 | 0.00 | 0.00 | 0.00 | 79 | 1011.4 |
| 20260509150110 | 11 | 138 | 4.8 | 6.4 | 0.00 | 0.00 | 0.00 | 80 | 1011.3 |
| 20260509145606 | 11 | 174 | 0.0 | 6.4 | 0.00 | 0.00 | 0.00 | 80 | 1011.5 |
| 20260509145101 | 11 | 113 | 1.6 | 4.8 | 0.00 | 0.00 | 0.00 | 79 | 1011.3 |
| 20260509144558 | 11 | 152 | 1.6 | 4.8 | 0.00 | 0.00 | 0.00 | 81 | 1011.3 |
| 20260509144055 | 11 | 160 | 0.0 | 4.8 | 0.00 | 0.00 | 0.00 | 81 | 1011.3 |
| 20260509143552 | 11 | 216 | 4.8 | 6.4 | 0.00 | 0.00 | 0.00 | 81 | 1011.4 |
| 20260509143049 | 11 | 127 | 1.6 | 4.8 | 0.00 | 0.00 | 0.00 | 83 | 1011.4 |
| 20260509142544 | 11 | 137 | 3.2 | 4.8 | 0.00 | 0.00 | 0.00 | 84 | 1011.3 |
| 20260509142041 | 10 | 118 | 1.6 | 6.4 | 0.00 | 0.00 | 0.00 | 83 | 1011.4 |
| 20260509141538 | 10 | 113 | 3.2 | 4.8 | 0.00 | 0.00 | 0.00 | 84 | 1011.6 |
| 20260509141035 | 10 | 131 | 4.8 | 6.4 | 0.00 | 0.00 | 0.00 | 85 | 1011.8 |
| 20260509140531 | 11 | 126 | 3.2 | 4.8 | 0.00 | 0.00 | 0.00 | 84 | 1011.4 |
| 20260509140029 | 11 | 6 | 1.6 | 3.2 | 0.00 | 0.00 | 0.00 | 82 | 1011.6 |
| 20260509135525 | 10 | 136 | 3.2 | 4.8 | 0.00 | 0.00 | 0.00 | 84 | 1011.5 |
| 20260509135024 | 10 | 156 | 3.2 | 9.7 | 0.00 | 0.00 | 0.00 | 84 | 1011.4 |
| 20260509134520 | 10 | 129 | 4.8 | 11.3 | 0.00 | 0.00 | 0.00 | 84 | 1011.6 |
| 20260509134018 | 10 | 119 | 3.2 | 4.8 | 0.00 | 0.00 | 0.00 | 85 | 1011.4 |
| 20260509133514 | 10 | 57 | 0.0 | 4.8 | 0.00 | 0.00 | 0.00 | 83 | 1011.5 |
| 20260509133012 | 10 | 142 | 4.8 | 8.0 | 0.00 | 0.00 | 0.00 | 85 | 1011.6 |
| 20260509132510 | 10 | 127 | 0.0 | 3.2 | 0.00 | 0.00 | 0.00 | 87 | 1011.4 |
| 20260509132008 | 10 | 135 | 0.0 | 4.8 | 0.00 | 0.00 | 0.00 | 88 | 1011.3 |
| 20260509131504 | 10 | 62 | 0.0 | 6.4 | 0.00 | 0.00 | 0.00 | 85 | 1011.4 |
| 20260509131001 | 10 | 125 | 1.6 | 3.2 | 0.00 | 0.00 | 0.00 | 87 | 1011.2 |
| 20260509130456 | 10 | 128 | 1.6 | 3.2 | 0.00 | 0.00 | 0.00 | 88 | 1011.4 |
| 20260509125953 | 10 | 66 | 0.0 | 1.6 | 0.00 | 0.00 | 0.00 | 88 | 1011.6 |
| 20260509125450 | 10 | 92 | 1.6 | 3.2 | 0.00 | 0.00 | 0.00 | 89 | 1011.5 |
| 20260509124946 | 9 | 121 | 0.0 | 3.2 | 0.00 | 0.00 | 0.00 | 89 | 1011.4 |
| 20260509124444 | 9 | 115 | 1.6 | 4.8 | 0.00 | 0.00 | 0.00 | 88 | 1011.4 |
| 20260509123940 | 9 | 113 | 1.6 | 4.8 | 0.00 | 0.00 | 0.00 | 90 | 1011.3 |
| 20260509123438 | 9 | 94 | 1.6 | 3.2 | 0.00 | 0.00 | 0.00 | 89 | 1011.4 |
| 20260509122933 | 9 | 116 | 3.2 | 3.2 | 0.00 | 0.00 | 0.00 | 89 | 1011.6 |
| 20260509122431 | 9 | 107 | 3.2 | 4.8 | 0.00 | 0.00 | 0.00 | 89 | 1011.5 |
| 20260509121927 | 9 | 57 | 1.6 | 3.2 | 0.00 | 0.00 | 0.00 | 89 | 1011.4 |
| 20260509121424 | 9 | 76 | 0.0 | 1.6 | 0.00 | 0.00 | 0.00 | 90 | 1011.6 |
| 20260509120922 | 9 | 113 | 0.0 | 6.4 | 0.00 | 0.00 | 0.00 | 89 | 1011.4 |
| 20260509120420 | 9 | 129 | 4.8 | 6.4 | 0.00 | 0.00 | 0.00 | 88 | 1011.5 |
| 20260509115918 | 10 | 84 | 3.2 | 4.8 | 0.00 | 0.00 | 0.00 | 89 | 1011.5 |
| 20260509115415 | 9 | 133 | 0.0 | 3.2 | 0.00 | 0.00 | 0.00 | 91 | 1011.8 |
| 20260509114912 | 9 | 125 | 3.2 | 3.2 | 0.00 | 0.00 | 0.00 | 89 | 1011.7 |
| 20260509114411 | 8 | 61 | 0.0 | 1.6 | 0.00 | 0.00 | 0.00 | 92 | 1011.7 |
| 20260509113905 | 8 | 62 | 0.0 | 1.6 | 0.00 | 0.00 | 0.00 | 93 | 1011.8 |
| 20260509113401 | 8 | 44 | 0.0 | 3.2 | 0.00 | 0.00 | 0.00 | 93 | 1011.7 |
| 20260509112858 | 8 | 104 | 0.0 | 3.2 | 0.00 | 0.00 | 0.00 | 93 | 1011.6 |
| 20260509112355 | 8 | 121 | 0.0 | 3.2 | 0.00 | 0.00 | 0.00 | 93 | 1011.8 |
| 20260509111852 | 8 | 89 | 0.0 | 3.2 | 0.00 | 0.00 | 0.00 | 93 | 1011.7 |
| 20260509111349 | 8 | 55 | 0.0 | 1.6 | 0.00 | 0.00 | 0.00 | 92 | 1011.7 |
| 20260509110847 | 8 | 141 | 0.0 | 3.2 | 0.00 | 0.00 | 0.00 | 92 | 1011.8 |
| 20260509110343 | 8 | 119 | 0.0 | 1.6 | 0.00 | 0.00 | 0.00 | 92 | 1011.5 |
| 20260509105841 | 8 | 127 | 0.0 | 4.8 | 0.00 | 0.00 | 0.00 | 90 | 1011.4 |
| 20260509105339 | 8 | 32 | 3.2 | 4.8 | 0.00 | 0.00 | 0.00 | 89 | 1011.4 |
| 20260509104835 | 8 | 120 | 3.2 | 4.8 | 0.00 | 0.00 | 0.00 | 90 | 1011.4 |
| 20260509104332 | 8 | 47 | 0.0 | 3.2 | 0.00 | 0.00 | 0.00 | 90 | 1011.5 |
| 20260509103830 | 8 | 154 | 0.0 | 3.2 | 0.00 | 0.00 | 0.00 | 90 | 1011.6 |
| 20260509103327 | 8 | 110 | 0.0 | 4.8 | 0.00 | 0.00 | 0.00 | 90 | 1011.7 |
| 20260509102826 | 8 | 102 | 0.0 | 4.8 | 0.00 | 0.00 | 0.00 | 88 | 1011.5 |
| 20260509102322 | 8 | 117 | 4.8 | 8.0 | 0.00 | 0.00 | 0.00 | 88 | 1011.6 |
| 20260509101818 | 8 | 125 | 1.6 | 3.2 | 0.00 | 0.00 | 0.00 | 88 | 1011.5 |
| 20260509101315 | 8 | 164 | 0.0 | 3.2 | 0.00 | 0.00 | 0.00 | 88 | 1011.5 |
| 20260509100813 | 7 | 3 | 1.6 | 4.8 | 0.00 | 0.00 | 0.00 | 90 | 1011.4 |
| 20260509100309 | 7 | 126 | 0.0 | 3.2 | 0.00 | 0.00 | 0.00 | 90 | 1011.5 |
| 20260509095806 | 7 | 38 | 0.0 | 3.2 | 0.00 | 0.00 | 0.00 | 91 | 1011.6 |
| 20260509095306 | 7 | 52 | 1.6 | 4.8 | 0.00 | 0.00 | 0.00 | 92 | 1011.5 |
| 20260509094801 | 6 | 44 | 1.6 | 3.2 | 0.00 | 0.00 | 0.00 | 94 | 1011.6 |
| 20260509094257 | 6 | 93 | 3.2 | 3.2 | 0.00 | 0.00 | 0.00 | 95 | 1011.4 |
| 20260509093755 | 6 | 44 | 0.0 | 3.2 | 0.00 | 0.00 | 0.00 | 95 | 1011.7 |
| 20260509093252 | 6 | 49 | 0.0 | 3.2 | 0.00 | 0.00 | 0.00 | 95 | 1011.4 |
| 20260509092750 | 6 | 340 | 1.6 | 4.8 | 0.00 | 0.00 | 0.00 | 95 | 1011.3 |
| 20260509092248 | 6 | 70 | 1.6 | 3.2 | 0.00 | 0.00 | 0.00 | 95 | 1011.7 |
| 20260509091745 | 6 | 55 | 0.0 | 3.2 | 0.00 | 0.00 | 0.00 | 94 | 1011.5 |
| 20260509091242 | 6 | 50 | 1.6 | 3.2 | 0.00 | 0.00 | 0.00 | 94 | 1011.5 |
| 20260509090740 | 6 | 31 | 0.0 | 3.2 | 0.00 | 0.00 | 0.00 | 94 | 1011.5 |
| 20260509090236 | 6 | 352 | 0.0 | 3.2 | 0.00 | 0.00 | 0.00 | 94 | 1011.6 |
| 20260509085734 | 6 | 10 | 0.0 | 3.2 | 0.00 | 0.00 | 0.00 | 95 | 1011.5 |
| 20260509085231 | 6 | 84 | 1.6 | 3.2 | 0.00 | 0.00 | 0.00 | 95 | 1011.7 |
| 20260509084728 | 6 | 55 | 0.0 | 3.2 | 0.00 | 0.00 | 0.00 | 94 | 1011.7 |
| 20260509084224 | 6 | 89 | 0.0 | 3.2 | 0.00 | 0.00 | 0.00 | 95 | 1011.7 |
| 20260509083722 | 6 | 7 | 0.0 | 3.2 | 0.00 | 0.00 | 0.00 | 94 | 1011.7 |
| 20260509083219 | 6 | 17 | 0.0 | 3.2 | 0.00 | 0.00 | 0.00 | 94 | 1011.8 |
| 20260509082715 | 6 | 124 | 0.0 | 3.2 | 0.00 | 0.00 | 0.00 | 94 | 1011.8 |
| 20260509082212 | 6 | 31 | 0.0 | 3.2 | 0.00 | 0.00 | 0.00 | 94 | 1011.7 |
| 20260509081709 | 6 | 27 | 3.2 | 3.2 | 0.00 | 0.00 | 0.00 | 94 | 1011.9 |
| 20260509081207 | 6 | 78 | 0.0 | 3.2 | 0.00 | 0.00 | 0.00 | 94 | 1011.6 |
| 20260509080705 | 6 | 53 | 1.6 | 3.2 | 0.00 | 0.00 | 0.00 | 94 | 1011.6 |
| 20260509080202 | 6 | 60 | 0.0 | 3.2 | 0.00 | 0.00 | 0.00 | 94 | 1011.8 |
| 20260509075700 | 6 | 54 | 1.6 | 3.2 | 0.00 | 0.00 | 0.00 | 94 | 1011.6 |
| 20260509075157 | 6 | 40 | 0.0 | 3.2 | 0.00 | 0.00 | 0.00 | 95 | 1011.5 |
| 20260509074654 | 6 | 132 | 0.0 | 3.2 | 0.00 | 0.00 | 0.00 | 96 | 1011.7 |
| 20260509074151 | 6 | 29 | 0.0 | 3.2 | 0.00 | 0.00 | 0.00 | 96 | 1011.5 |
| 20260509073648 | 6 | 107 | 3.2 | 3.2 | 0.00 | 0.00 | 0.00 | 96 | 1011.6 |
| 20260509073144 | 6 | 94 | 1.6 | 3.2 | 0.00 | 0.00 | 0.00 | 96 | 1011.6 |
| 20260509072641 | 6 | 50 | 1.6 | 3.2 | 0.00 | 0.00 | 0.00 | 96 | 1011.8 |
| 20260509072137 | 6 | 47 | 1.6 | 3.2 | 0.00 | 0.00 | 0.00 | 97 | 1011.9 |
| 20260509071634 | 5 | 52 | 1.6 | 3.2 | 0.00 | 0.00 | 0.00 | 96 | 1011.5 |
| 20260509071132 | 5 | 55 | 0.0 | 1.6 | 0.00 | 0.00 | 0.00 | 97 | 1011.6 |
| 20260509070628 | 5 | 55 | 0.0 | 1.6 | 0.00 | 0.00 | 0.00 | 97 | 1011.7 |
| 20260509070124 | 5 | 88 | 0.0 | 3.2 | 0.00 | 0.00 | 0.00 | 97 | 1011.6 |
| 20260509065620 | 5 | 66 | 0.0 | 3.2 | 0.00 | 0.00 | 0.00 | 98 | 1011.7 |
| 20260509065116 | 5 | 71 | 1.6 | 3.2 | 0.00 | 0.00 | 0.00 | 98 | 1011.5 |
| 20260509064613 | 5 | 119 | 1.6 | 3.2 | 0.00 | 0.00 | 0.00 | 98 | 1011.5 |
| 20260509064112 | 5 | 38 | 0.0 | 3.2 | 0.00 | 0.00 | 0.00 | 97 | 1011.4 |
| 20260509063608 | 5 | 36 | 0.0 | 3.2 | 0.00 | 0.00 | 0.00 | 98 | 1011.5 |
| 20260509063105 | 5 | 60 | 1.6 | 3.2 | 0.00 | 0.00 | 0.00 | 98 | 1011.5 |
| 20260509062601 | 4 | 39 | 1.6 | 3.2 | 0.00 | 0.00 | 0.00 | 97 | 1011.7 |
| 20260509062059 | 5 | 36 | 0.0 | 3.2 | 0.00 | 0.00 | 0.00 | 97 | 1011.5 |
| 20260509061555 | 4 | 58 | 0.0 | 3.2 | 0.00 | 0.00 | 0.00 | 96 | 1011.8 |
| 20260509061053 | 5 | 61 | 0.0 | 3.2 | 0.00 | 0.00 | 0.00 | 96 | 1011.9 |
| 20260509060551 | 5 | 52 | 0.0 | 3.2 | 0.00 | 0.00 | 0.00 | 96 | 1011.7 |
| 20260509060046 | 5 | 34 | 0.0 | 3.2 | 0.00 | 0.00 | 0.00 | 95 | 1011.9 |
| 20260509055542 | 5 | 46 | 0.0 | 3.2 | 0.00 | 0.00 | 0.00 | 94 | 1011.8 |
| 20260509055038 | 5 | 29 | 1.6 | 4.8 | 0.00 | 0.00 | 0.00 | 94 | 1012.0 |
| 20260509054535 | 5 | 57 | 1.6 | 3.2 | 0.00 | 0.00 | 0.00 | 94 | 1012.1 |
| 20260509054033 | 5 | 25 | 0.0 | 3.2 | 0.00 | 0.00 | 0.00 | 94 | 1012.3 |
| 20260509053531 | 6 | 5 | 0.0 | 4.8 | 0.00 | 0.00 | 0.00 | 93 | 1012.3 |
| 20260509053027 | 6 | 65 | 1.6 | 3.2 | 0.00 | 0.00 | 0.00 | 92 | 1012.1 |
| 20260509052525 | 6 | 37 | 0.0 | 3.2 | 0.00 | 0.00 | 0.00 | 91 | 1011.8 |
| 20260509052023 | 6 | 32 | 0.0 | 3.2 | 0.00 | 0.00 | 0.00 | 90 | 1012.3 |
| 20260509051522 | 7 | 74 | 1.6 | 3.2 | 0.00 | 0.00 | 0.00 | 91 | 1012.4 |
| 20260509051018 | 7 | 44 | 0.0 | 3.2 | 0.00 | 0.00 | 0.00 | 90 | 1012.4 |
| 20260509050514 | 7 | 28 | 1.6 | 3.2 | 0.00 | 0.00 | 0.00 | 90 | 1012.7 |
| 20260509050011 | 7 | 87 | 1.6 | 3.2 | 0.00 | 0.00 | 0.00 | 91 | 1012.7 |
| 20260509045508 | 7 | 122 | 3.2 | 3.2 | 0.00 | 0.00 | 0.00 | 89 | 1012.5 |
| 20260509045005 | 7 | 26 | 1.6 | 3.2 | 0.00 | 0.00 | 0.00 | 89 | 1012.5 |
| 20260509044503 | 7 | 44 | 0.0 | 3.2 | 0.00 | 0.00 | 0.00 | 89 | 1012.5 |
| 20260509044000 | 7 | 147 | 0.0 | 3.2 | 0.00 | 0.00 | 0.00 | 89 | 1012.6 |
| 20260509043455 | 7 | 31 | 0.0 | 3.2 | 0.00 | 0.00 | 0.00 | 89 | 1012.6 |
| 20260509042951 | 7 | 100 | 0.0 | 3.2 | 0.00 | 0.00 | 0.00 | 89 | 1012.7 |
| 20260509042448 | 7 | 42 | 0.0 | 3.2 | 0.00 | 0.00 | 0.00 | 89 | 1012.5 |
| 20260509041944 | 7 | 66 | 0.0 | 3.2 | 0.00 | 0.00 | 0.00 | 88 | 1012.8 |
| 20260509041441 | 7 | 44 | 1.6 | 3.2 | 0.00 | 0.00 | 0.00 | 88 | 1012.8 |
| 20260509040940 | 8 | 87 | 1.6 | 3.2 | 0.00 | 0.00 | 0.00 | 88 | 1012.8 |
| 20260509040437 | 8 | 44 | 0.0 | 1.6 | 0.00 | 0.00 | 0.00 | 87 | 1012.9 |
| 20260509035934 | 8 | 46 | 0.0 | 1.6 | 0.00 | 0.00 | 0.00 | 88 | 1012.8 |
| 20260509035431 | 8 | 73 | 0.0 | 1.6 | 0.00 | 0.00 | 0.00 | 89 | 1012.8 |
| 20260509034927 | 8 | 102 | 0.0 | 3.2 | 0.00 | 0.00 | 0.00 | 88 | 1012.8 |
| 20260509034425 | 8 | 80 | 1.6 | 3.2 | 0.00 | 0.00 | 0.00 | 88 | 1012.7 |
| 20260509033922 | 8 | 67 | 0.0 | 3.2 | 0.00 | 0.00 | 0.00 | 90 | 1012.9 |
| 20260509033419 | 8 | 44 | 0.0 | 1.6 | 0.00 | 0.00 | 0.00 | 89 | 1013.0 |
| 20260509032915 | 8 | 83 | 1.6 | 3.2 | 0.00 | 0.00 | 0.00 | 90 | 1013.2 |
| 20260509032413 | 8 | 76 | 0.0 | 3.2 | 0.00 | 0.00 | 0.00 | 88 | 1013.0 |
| 20260509031911 | 8 | 90 | 1.6 | 1.6 | 0.00 | 0.00 | 0.00 | 88 | 1012.9 |
| 20260509031408 | 8 | 66 | 0.0 | 3.2 | 0.00 | 0.00 | 0.00 | 87 | 1013.0 |
| 20260509030905 | 8 | 89 | 0.0 | 1.6 | 0.00 | 0.00 | 0.00 | 88 | 1013.1 |
| 20260509030403 | 8 | 124 | 0.0 | 3.2 | 0.00 | 0.00 | 0.00 | 88 | 1012.7 |
| 20260509025900 | 8 | 52 | 1.6 | 3.2 | 0.00 | 0.00 | 0.00 | 87 | 1012.8 |
| 20260509025355 | 8 | 53 | 3.2 | 3.2 | 0.00 | 0.00 | 0.00 | 84 | 1012.9 |
| 20260509024850 | 8 | 66 | 0.0 | 1.6 | 0.00 | 0.00 | 0.00 | 85 | 1013.2 |
| 20260509024347 | 8 | 35 | 1.6 | 1.6 | 0.00 | 0.00 | 0.00 | 85 | 1012.7 |
| 20260509023844 | 8 | 44 | 0.0 | 3.2 | 0.00 | 0.00 | 0.00 | 85 | 1013.0 |
| 20260509023342 | 8 | 55 | 1.6 | 3.2 | 0.00 | 0.00 | 0.00 | 87 | 1012.9 |
| 20260509022833 | 8 | 44 | 0.0 | 3.2 | 0.00 | 0.00 | 0.00 | 85 | 1013.0 |
| 20260509022330 | 8 | 68 | 1.6 | 3.2 | 0.00 | 0.00 | 0.00 | 84 | 1012.9 |
| 20260509021826 | 8 | 55 | 0.0 | 3.2 | 0.00 | 0.00 | 0.00 | 85 | 1012.9 |
| 20260509021323 | 8 | 7 | 1.6 | 3.2 | 0.00 | 0.00 | 0.00 | 84 | 1012.7 |
| 20260509020821 | 8 | 6 | 1.6 | 3.2 | 0.00 | 0.00 | 0.00 | 85 | 1013.0 |
| 20260509020319 | 8 | 16 | 3.2 | 3.2 | 0.00 | 0.00 | 0.00 | 84 | 1012.7 |
| 20260509015816 | 8 | 44 | 0.0 | 3.2 | 0.00 | 0.00 | 0.00 | 83 | 1012.9 |
| 20260509015314 | 8 | 32 | 0.0 | 3.2 | 0.00 | 0.00 | 0.00 | 83 | 1012.8 |
| 20260509014811 | 8 | 55 | 0.0 | 1.6 | 0.00 | 0.00 | 0.00 | 83 | 1012.8 |
| 20260509014308 | 8 | 145 | 0.0 | 1.6 | 0.00 | 0.00 | 0.00 | 82 | 1013.0 |
| 20260509013804 | 8 | 55 | 0.0 | 3.2 | 0.00 | 0.00 | 0.00 | 82 | 1013.0 |
| 20260509013300 | 8 | 43 | 1.6 | 3.2 | 0.00 | 0.00 | 0.00 | 82 | 1012.8 |
| 20260509012756 | 8 | 47 | 1.6 | 3.2 | 0.00 | 0.00 | 0.00 | 81 | 1012.8 |
| 20260509012254 | 8 | 23 | 1.6 | 3.2 | 0.00 | 0.00 | 0.00 | 79 | 1012.5 |
| 20260509011751 | 8 | 44 | 0.0 | 1.6 | 0.00 | 0.00 | 0.00 | 82 | 1012.6 |
| 20260509011248 | 8 | 49 | 0.0 | 3.2 | 0.00 | 0.00 | 0.00 | 82 | 1012.7 |
| 20260509010746 | 8 | 5 | 1.6 | 3.2 | 0.00 | 0.00 | 0.00 | 80 | 1012.1 |
| 20260509010242 | 8 | 8 | 3.2 | 4.8 | 0.00 | 0.00 | 0.00 | 78 | 1012.4 |
| 20260509005740 | 9 | 11 | 0.0 | 1.6 | 0.00 | 0.00 | 0.00 | 79 | 1012.4 |
| 20260509005238 | 9 | 116 | 0.0 | 3.2 | 0.00 | 0.00 | 0.00 | 80 | 1012.4 |
| 20260509004731 | 9 | 103 | 0.0 | 3.2 | 0.00 | 0.00 | 0.00 | 79 | 1012.4 |
| 20260509004229 | 9 | 358 | 0.0 | 4.8 | 0.00 | 0.00 | 0.00 | 79 | 1012.0 |
| 20260509003727 | 10 | 31 | 0.0 | 1.6 | 0.00 | 0.00 | 0.00 | 74 | 1012.3 |
| 20260509003224 | 9 | 24 | 3.2 | 3.2 | 0.00 | 0.00 | 0.00 | 74 | 1012.4 |
| 20260509002721 | 9 | 16 | 1.6 | 3.2 | 0.00 | 0.00 | 0.00 | 74 | 1012.3 |
| 20260509002219 | 10 | 65 | 0.0 | 3.2 | 0.00 | 0.00 | 0.00 | 72 | 1012.3 |
| 20260509001716 | 10 | 32 | 0.0 | 3.2 | 0.00 | 0.00 | 0.00 | 71 | 1012.5 |
| 20260509001212 | 10 | 35 | 0.0 | 3.2 | 0.00 | 0.00 | 0.00 | 71 | 1012.0 |
| 20260509000710 | 10 | 31 | 0.0 | 3.2 | 0.00 | 0.00 | 0.00 | 70 | 1012.0 |
| 20260509000207 | 10 | 51 | 0.0 | 4.8 | 0.00 | 0.00 | 0.00 | 68 | 1012.3 |
| 20260508235704 | 11 | 23 | 1.6 | 3.2 | 0.00 | 0.00 | 0.00 | 67 | 1012.3 |
| 20260508235200 | 11 | 341 | 0.0 | 3.2 | 0.00 | 0.00 | 0.00 | 65 | 1012.0 |
| 20260508234658 | 12 | 110 | 0.0 | 3.2 | 0.00 | 0.00 | 0.00 | 59 | 1011.8 |
| 20260508234154 | 12 | 139 | 3.2 | 6.4 | 0.00 | 0.00 | 0.00 | 58 | 1012.3 |
| 20260508233654 | 12 | 145 | 3.2 | 4.8 | 0.00 | 0.00 | 0.00 | 59 | 1012.0 |
| 20260508233151 | 13 | 82 | 0.0 | 8.0 | 0.00 | 0.00 | 0.00 | 55 | 1012.0 |
| 20260508232648 | 13 | 132 | 0.0 | 4.8 | 0.00 | 0.00 | 0.00 | 55 | 1011.8 |
| 20260508232145 | 13 | 148 | 0.0 | 8.0 | 0.00 | 0.00 | 0.00 | 61 | 1012.0 |
| 20260508231643 | 13 | 101 | 4.8 | 9.7 | 0.00 | 0.00 | 0.00 | 52 | 1012.0 |
| 20260508231139 | 13 | 152 | 3.2 | 4.8 | 0.00 | 0.00 | 0.00 | 57 | 1011.9 |
| 20260508230636 | 13 | 140 | 3.2 | 11.3 | 0.00 | 0.00 | 0.00 | 53 | 1011.9 |
| 20260508230132 | 13 | 144 | 0.0 | 6.4 | 0.00 | 0.00 | 0.00 | 55 | 1011.9 |
| 20260508225631 | 14 | 143 | 3.2 | 12.9 | 0.00 | 0.00 | 0.00 | 54 | 1011.8 |
| 20260508225126 | 14 | 153 | 6.4 | 9.7 | 0.00 | 0.00 | 0.00 | 50 | 1011.8 |
| 20260508224624 | 14 | 157 | 4.8 | 14.5 | 0.00 | 0.00 | 0.00 | 50 | 1011.8 |
| 20260508224122 | 13 | 80 | 0.0 | 3.2 | 0.00 | 0.00 | 0.00 | 54 | 1011.8 |
| 20260508223619 | 14 | 110 | 3.2 | 9.7 | 0.00 | 0.00 | 0.00 | 53 | 1011.7 |
| 20260508223116 | 14 | 3 | 0.0 | 6.4 | 0.00 | 0.00 | 0.00 | 52 | 1012.0 |
| 20260508222614 | 14 | 170 | 0.0 | 4.8 | 0.00 | 0.00 | 0.00 | 56 | 1011.9 |
| 20260508222111 | 14 | 142 | 3.2 | 6.4 | 0.00 | 0.00 | 0.00 | 54 | 1011.9 |
| 20260508221607 | 14 | 151 | 4.8 | 8.0 | 0.00 | 0.00 | 0.00 | 52 | 1011.7 |
| 20260508221103 | 14 | 136 | 0.0 | 6.4 | 0.00 | 0.00 | 0.00 | 55 | 1011.7 |
| 20260508220559 | 14 | 112 | 1.6 | 6.4 | 0.00 | 0.00 | 0.00 | 52 | 1011.8 |
| 20260508220055 | 15 | 139 | 8.0 | 14.5 | 0.00 | 0.00 | 0.00 | 52 | 1011.8 |
| 20260508215553 | 14 | 84 | 4.8 | 9.7 | 0.00 | 0.00 | 0.00 | 51 | 1011.7 |
| 20260508215049 | 15 | 145 | 6.4 | 17.7 | 0.00 | 0.00 | 0.00 | 51 | 1011.9 |
| 20260508214547 | 15 | 29 | 3.2 | 9.7 | 0.00 | 0.00 | 0.00 | 50 | 1011.7 |
| 20260508214043 | 15 | 98 | 4.8 | 17.7 | 0.00 | 0.00 | 0.00 | 53 | 1012.1 |
| 20260508213541 | 15 | 158 | 4.8 | 12.9 | 0.00 | 0.00 | 0.00 | 52 | 1011.9 |